This is the latest recevied weather packets stored in our database for station/object DB0SVX. If no packets are shown the sender has not sent any weather packets the latest 10 day(s).
| Time | Temp. | Humidity | Pressure | Rain* | Wind** | Luminosity | Snow |
|---|---|---|---|---|---|---|---|
| 1777742720 | 29.44° C | 22% | 1015.7 hPa | 0 mm | - | - | - |
| 1777741820 | 30.56° C | 20% | 1015.7 hPa | 0 mm | - | - | - |
| 1777740920 | 30° C | 20% | 1016 hPa | 0 mm | - | - | - |
| 1777740020 | 30.56° C | 20% | 1016 hPa | 0 mm | - | - | - |
| 1777739120 | 31.67° C | 20% | 1016.2 hPa | 0 mm | - | - | - |
| 1777738220 | 32.22° C | 19% | 1016.2 hPa | 0 mm | - | - | - |
| 1777737320 | 32.78° C | 19% | 1016.5 hPa | 0 mm | - | - | - |
| 1777736420 | 32.78° C | 19% | 1016.7 hPa | 0 mm | - | - | - |
| 1777735520 | 33.89° C | 18% | 1016.5 hPa | 0 mm | - | - | - |
| 1777734620 | 33.89° C | 18% | 1016.9 hPa | 0 mm | - | - | - |
| 1777733720 | 33.89° C | 18% | 1017 hPa | 0 mm | - | - | - |
| 1777732820 | 33.89° C | 19% | 1017.2 hPa | 0 mm | - | - | - |
| 1777731920 | 32.78° C | 20% | 1017.2 hPa | 0 mm | - | - | - |
| 1777731020 | 31.67° C | 20% | 1017.4 hPa | 0 mm | - | - | - |
| 1777730120 | 31.11° C | 21% | 1017.7 hPa | 0 mm | - | - | - |
| 1777729220 | 31.11° C | 22% | 1017.7 hPa | 0 mm | - | - | - |
| 1777728320 | 30.56° C | 22% | 1018 hPa | 0 mm | - | - | - |
| 1777727420 | 28.89° C | 25% | 1018 hPa | 0 mm | - | - | - |
| 1777726520 | 27.78° C | 25% | 1018.2 hPa | 0 mm | - | - | - |
| 1777725620 | 28.89° C | 25% | 1018.5 hPa | 0 mm | - | - | - |
| 1777724720 | 30° C | 23% | 1018.7 hPa | 0 mm | - | - | - |
| 1777723820 | 31.11° C | 24% | 1018.9 hPa | 0 mm | - | - | - |
| 1777722920 | 30.56° C | 24% | 1019 hPa | 0 mm | - | - | - |
| 1777722020 | 30.56° C | 24% | 1019.2 hPa | 0 mm | - | - | - |
| 1777721120 | 31.67° C | 22% | 1019.5 hPa | 0 mm | - | - | - |
* Rain latest hour (hover to see other rain measurements)
** Current wind speed in m/s (hover to see current wind gust speed)